sat.trackr.live / text

‹ back to catalog

STARLINK-35374

NORAD 66194 · 2025-243T

PAYLOAD ACTIVE UNKNOWN

§ Identity

Operator
Country
US
Launch date
2025-10-26
Launch site
AFETR
Launch vehicle
Mass (kg)
RCS (m²)

Purposes: comms

External: N2YO · Heavens-Above · Gunter

§ Orbital elements

Epoch: 2026-05-25T00:05:32.400672Z

Period
94.01 min
Inclination
53.1601°
Eccentricity
0.0001277
Mean motion
15.31709810 rev/d
Perigee alt
469.8 km
Apogee alt
471.6 km
Semi-major
6,848.8 km
B*
5.0408e-4
RAAN
250.3672°
Arg perigee
76.1263°
Mean anomaly
283.9880°
Rev number
3,234

§ Raw data

STARLINK-353741 66194U 25243T   26145.00384723  .00015314  00000+0  50408-3 0  99902 66194  53.1601 250.3672 0001277  76.1263 283.9880 15.31709810 32346

JSON: /api/v1/satellites/66194 · /tle

For live sub-satellite position, see the globe view (requires WebGL).

§ Visibility from observer

Set your observer location to see the next 7 days of passes ≥ 10°. The values pass through the URL so the page stays shareable.

No JS? Fill the form by hand. The geolocation button needs JavaScript.